Location: Newark
(30.1000°N, 109.4667°E)
Time: 00:53:49
(UTC+00:00)

Explorer 11/Cluster Stage 4 - Visible Passes

Search period start: 23 February 2020 00:00
Search period end: 04 March 2020 00:00
Orbit: 467 x 1259 km, 28.8° (Epoch: 22 February)

Date Brightness Start Highest point End Pass type
(mag) Time Alt. Az. Time Alt. Az. Time Alt. Az.
23 Feb 6.3 21:55:37 33° SW 21:56:15 36° SSW 21:59:35 10° SE visible
24 Feb 6.6 21:45:41 31° SSW 21:45:41 31° SSW 21:48:54 10° SE visible
25 Feb 7.1 21:35:48 25° S 21:35:48 25° S 21:38:11 10° SE visible
26 Feb 7.7 21:25:56 19° SSE 21:25:56 19° SSE 21:27:27 10° SSE visible
27 Feb 8.2 21:16:07 13° SSE 21:16:07 13° SSE 21:16:40 10° SSE visible
28 Feb 9.2 11:58:42 10° SSE 12:00:09 11° SSE 12:01:15 10° SE visible
28 Feb 9.5 13:42:14 10° SW 13:43:25 14° SSW 13:43:25 14° SSW visible
29 Feb 9.1 11:45:43 10° S 11:49:14 13° SSE 11:51:33 12° SE visible
29 Feb 9.1 13:30:55 10° SW 13:33:43 21° SSW 13:33:43 21° SSW visible
01 Mar 9.0 11:33:40 10° S 11:38:18 16° SSE 11:41:51 12° ESE visible
01 Mar 8.6 13:19:40 10° SW 13:24:01 29° SSW 13:24:01 29° SSW visible
02 Mar 8.9 11:21:57 10° S 11:27:21 19° SSE 11:32:07 11° ESE visible
02 Mar 8.2 13:08:30 10° SW 13:14:17 39° SSW 13:14:17 39° SSW visible
03 Mar 8.8 11:10:25 10° SSW 11:16:22 22° SSE 11:22:16 10° ESE visible
03 Mar 7.8 12:57:22 10° SW 13:04:31 49° S 13:04:31 49° S visible
03 Mar 9.9 14:46:28 10° WSW 14:46:41 11° WSW 14:46:41 11° WSW visible
